Location: Unspecified
(0.0000°N, 0.0000°E)
Time: 14:11:00
(UTC+00:00)

Envisat - Pass Details

Date: 14 September 2019
Orbit: 764 x 766 km, 98.1° (Epoch: 18 September)

Event Time Altitude Azimuth Distance (km) Brightness Sun altitude
Rises 19:32:59 0° 197° (SSW) 3,230 6.4 -24.3°
Reaches altitude 10° 19:35:59 10° 215° (SW) 2,301 5.8 -25.1°
Maximum altitude 19:39:21 18° 257° (WSW) 1,805 5.7 -25.9°
Drops below altitude 10° 19:42:43 10° 300° (WNW) 2,294 6.3 -26.7°
Sets 19:45:43 0° 318° (NW) 3,216 6.9 -27.5°
